Voltar ao catálogo

COSMOS 2234

GLONASS

AtivoNavegaçãoMEO
NORAD 22512·PAYLOAD·🇷🇺 Russia

Lançado Feb 17, 1993 de Baikonur Cosmodrome

Loading…

Próximas Passagens (próximas 24 horas)

TLE

AtualizadoSource: Space-Track

Época: Sep 14, 2026, 13:31 UTC

1 22512U 93010A   26257.56362380 -.00000014  00000-0  00000+0 0  9995
2 22512  64.9610  67.0166 0022875 213.7850 141.8424  2.13103582261037

Acompanhe COSMOS 2234 em tempo real com AllMySat

Download on the App Store